Location: Caltech
(34.1382°N, 118.1253°W)
Time: 10:34:14
(UTC-07:00)

OPAL - Visible Passes

Search period start: 17 September 2014 00:00
Search period end: 27 September 2014 00:00
Orbit: 744 x 796 km, 100.2° (Epoch: 17 September)

Date Brightness Start Highest point End Pass type
(mag) Time Alt. Az. Time Alt. Az. Time Alt. Az.
17 Sep 9.3 04:01:18 10° SE 04:05:45 30° ENE 04:10:15 10° N visible
17 Sep 8.4 05:40:12 10° SSW 05:44:32 27° W 05:48:56 10° NW visible
18 Sep 10.4 03:28:20 10° E 03:30:56 14° ENE 03:33:33 10° NNE visible
18 Sep 7.5 05:04:06 10° S 05:09:12 64° WSW 05:14:23 10° NNW visible
19 Sep 8.2 04:29:02 10° SSE 04:34:04 56° ENE 04:39:09 10° N visible
19 Sep 9.1 06:10:27 10° SW 06:13:13 15° W 06:16:01 10° WNW visible
20 Sep 9.6 03:54:57 10° ESE 03:59:06 25° ENE 04:03:18 10° NNE visible
20 Sep 8.1 05:33:07 10° SSW 05:37:45 34° W 05:42:28 10° NW visible
21 Sep 10.6 03:22:46 10° ENE 03:24:20 11° ENE 03:25:55 10° NE visible
21 Sep 7.4 04:57:19 10° SSE 05:02:29 80° WSW 05:07:43 10° NNW visible
22 Sep 8.6 04:22:28 10° SE 04:27:23 45° ENE 04:32:20 10° N visible
22 Sep 8.8 06:02:55 10° SW 06:06:24 18° W 06:09:56 10° NW visible
23 Sep 9.9 03:48:41 10° ESE 03:52:28 21° ENE 03:56:16 10° NNE visible
23 Sep 7.9 05:26:07 10° S 05:31:00 42° W 05:35:56 10° NNW visible
23 Sep 10.7 19:20:58 10° NW 19:22:53 12° WNW 19:24:48 10° W visible
24 Sep 7.5 04:50:35 10° SSE 04:55:45 84° ENE 05:01:00 10° NNW visible
25 Sep 9.0 04:15:59 10° SE 04:20:42 37° ENE 04:25:28 10° N visible
25 Sep 8.6 05:55:35 10° SSW 05:59:36 23° W 06:03:39 10° NW visible
26 Sep 10.2 03:42:34 10° ESE 03:45:50 17° ENE 03:49:07 10° NNE visible
26 Sep 7.6 05:19:12 10° S 05:24:14 52° WSW 05:29:20 10° NNW visible
26 Sep 10.5 19:13:29 10° NNW 19:16:16 15° WNW 19:19:02 10° W visible
